Valentine, NE

5:05 PM CDT on September 20, 2017 (GMT -0500)
Miller Field

Weather History for KVTN - December, 2013

Change the Weather History Date:

Tuesday, December 3, 2013

  Actual Average Record
Temperature  
Mean Temperature 23 °F 26 °F  
Max Temperature 35 °F 39 °F 70 °F (1948)
Min Temperature 11 °F 14 °F -11 °F (1964)
Degree Days  
Heating Degree Days 42 39  
Month to date heating degree days 92 115  
Since 1 July heating degree days 1651 1733  
Cooling Degree Days 0 0  
Month to date cooling degree days 0 0  
Year to date cooling degree days 964 821  
Moisture  
Dew Point 21 °F    
Average Humidity 92    
Maximum Humidity 100    
Minimum Humidity 84    
Precipitation  
Precipitation 0.48 in 0.01 in 0.48 in (2013)
Month to date precipitation 0.48 0.04  
Year to date precipitation 23.40 19.69  
Snow  
Snow 8.00 in 0.20 in 8.00 in (2013)
Month to date snowfall 8.0 0.5  
Since 1 July snowfall 14.8 8.1  
Snow Depth 0.00 in    
Sea Level Pressure  
Sea Level Pressure 29.73 in    
Wind  
Wind Speed 11 mph (North)    
Max Wind Speed 22 mph    
Max Gust Speed 28 mph    
Visibility 2 miles    
Events Fog , Snow    
T = Trace of Precipitation, MM = Missing Value Source: NWS Daily Summary

Daily Weather History Graph

Daily Weather History Graph

Search for Another Location

Airport or City:

Trip Planner

Search our weather history database for the weather conditions in past years. The results will help you decide how hot, cold, wet, or windy it might be!

Date:

Astronomy

Dec. 03, 2013 Rise Set
Actual Time 7:55 AM CST 5:08 PM CST
Civil Twilight 7:23 AM CST 5:40 PM CST
Nautical Twilight 6:48 AM CST 6:15 PM CST
Astronomical Twilight 6:14 AM CST 6:49 PM CST
Moon 8:26 AM CST (12/3) 6:14 PM CST (12/3)
Length of Visible Light 10h 16m
Length of Day
9h 12m
New Moon, 1% of the Moon is Illuminated
Dec 3
New Moon
Dec 9
First Quarter
Dec 17
Full
Dec 25
Last Quarter
Jan 1
New

Hourly Weather History & Observations

Time (CST) Temp. Windchill Dew Point Humidity Pressure Visibility Wind Dir Wind Speed Gust Speed Precip Events Conditions
12:06 AM 35.6 °F 28.6 °F 32.0 °F 87% 29.56 in 10.0 mi NNE 9.2 mph - N/A   Overcast
12:52 AM 34.0 °F 28.0 °F 32.0 °F 92% 29.58 in 10.0 mi ENE 6.9 mph - N/A   Overcast
12:58 AM 35.6 °F 29.9 °F 32.0 °F 87% 29.55 in 10.0 mi ENE 6.9 mph - N/A   Overcast
1:34 AM 33.8 °F 27.0 °F 33.8 °F 100% 29.55 in 6.0 mi ENE 8.1 mph - N/A   Overcast
1:46 AM 33.8 °F 27.7 °F 33.8 °F 100% 29.56 in 1.8 mi NNE 6.9 mph - N/A   Overcast
1:52 AM 34.0 °F 26.0 °F 33.1 °F 96% 29.58 in 1.0 mi NE 10.4 mph - N/A   Overcast
2:00 AM 33.8 °F 27.0 °F 33.8 °F 100% 29.56 in 0.5 mi NNE 8.1 mph - N/A Fog Fog
2:52 AM 33.1 °F 24.9 °F 32.0 °F 96% 29.60 in 0.2 mi NE 10.4 mph - N/A Fog Fog
3:52 AM 32.0 °F 23.6 °F 30.9 °F 96% 29.60 in 0.2 mi NNE 10.4 mph - N/A Fog Fog
4:48 AM 30.2 °F 22.6 °F 28.4 °F 93% 29.58 in 1.2 mi NE 8.1 mph - N/A   Overcast
4:52 AM 30.0 °F 22.4 °F 28.9 °F 96% 29.62 in 2.0 mi NE 8.1 mph - N/A   Overcast
5:06 AM 30.2 °F 21.3 °F 28.4 °F 93% 29.59 in 1.0 mi ENE 10.4 mph - N/A   Overcast
5:14 AM 30.2 °F 21.3 °F 28.4 °F 93% 29.58 in 0.8 mi ENE 10.4 mph - N/A   Overcast
5:18 AM 28.4 °F 18.5 °F 28.4 °F 100% 29.59 in 1.2 mi NE 11.5 mph - N/A   Overcast
5:30 AM 28.4 °F 20.4 °F 28.4 °F 100% 29.59 in 0.8 mi NE 8.1 mph - N/A   Overcast
5:52 AM 28.9 °F 21.1 °F 28.0 °F 96% 29.64 in 0.8 mi NE 8.1 mph - N/A   Overcast
6:34 AM 28.4 °F 20.4 °F 26.6 °F 93% 29.61 in 1.2 mi NE 8.1 mph - N/A   Overcast
6:48 AM 26.6 °F 16.8 °F 26.6 °F 100% 29.62 in 0.8 mi NE 10.4 mph - N/A   Overcast
6:52 AM 27.0 °F 18.0 °F 26.1 °F 96% 29.68 in 0.8 mi NE 9.2 mph - N/A   Overcast
7:52 AM 27.0 °F 16.7 °F 26.1 °F 96% 29.68 in 0.8 mi NNE 11.5 mph - N/A   Overcast
8:52 AM 26.1 °F 15.6 °F 25.0 °F 96% 29.72 in 0.2 mi NE 11.5 mph - N/A Fog Light Freezing Fog
9:52 AM 25.0 °F 14.8 °F 24.1 °F 96% 29.75 in 0.2 mi NNE 10.4 mph - N/A Fog Light Freezing Fog
10:52 AM 25.0 °F 14.8 °F 23.0 °F 92% 29.81 in 0.8 mi NNW 10.4 mph - N/A   Overcast
10:59 AM 24.8 °F 13.4 °F 23.0 °F 93% 29.73 in 1.0 mi NNW 12.7 mph 18.4 mph N/A   Overcast
11:07 AM 24.8 °F 12.9 °F 23.0 °F 93% 29.73 in 1.2 mi NNW 13.8 mph 18.4 mph 0.00 in Snow Light Snow
11:14 AM 24.8 °F 13.4 °F 23.0 °F 93% 29.73 in 1.0 mi North 12.7 mph - 0.00 in Snow Light Snow
11:28 AM 24.8 °F 15.3 °F 23.0 °F 93% 29.72 in 0.8 mi North 9.2 mph - 0.01 in Snow Light Snow
11:43 AM 26.6 °F 17.5 °F 24.8 °F 93% 29.70 in 0.5 mi North 9.2 mph - 0.02 in Fog , Snow Light Snow
11:52 AM 25.0 °F 15.5 °F 23.0 °F 92% 29.77 in 1.0 mi North 9.2 mph - 0.02 in Snow Light Snow
12:04 PM 24.8 °F 14.0 °F 21.2 °F 86% 29.70 in 1.5 mi North 11.5 mph - 0.00 in Snow Light Snow
12:07 PM 24.8 °F 13.4 °F 21.2 °F 86% 29.70 in 2.0 mi North 12.7 mph - 0.00 in Snow Light Snow
12:17 PM 24.8 °F 13.4 °F 21.2 °F 86% 29.69 in 4.0 mi North 12.7 mph 19.6 mph 0.00 in   Overcast
12:24 PM 24.8 °F 13.4 °F 21.2 °F 86% 29.70 in 6.0 mi North 12.7 mph - 0.00 in   Overcast
12:52 PM 24.1 °F 11.5 °F 21.0 °F 88% 29.77 in 10.0 mi North 15.0 mph - 0.00 in   Overcast
1:28 PM 24.8 °F 13.4 °F 21.2 °F 86% 29.69 in 1.8 mi North 12.7 mph 19.6 mph 0.00 in Snow Light Snow
1:34 PM 23.0 °F 10.6 °F 19.4 °F 86% 29.69 in 0.8 mi North 13.8 mph - 0.00 in Snow Light Snow
1:44 PM 23.0 °F 13.9 °F 21.2 °F 93% 29.70 in 0.8 mi North 8.1 mph - 0.01 in Snow Light Snow
1:52 PM 24.1 °F 14.4 °F 21.0 °F 88% 29.77 in 0.5 mi North 9.2 mph - 0.01 in Fog , Snow Light Snow
2:08 PM 24.8 °F 15.3 °F 21.2 °F 86% 29.69 in 0.5 mi North 9.2 mph - 0.01 in Fog , Snow Snow
2:52 PM 23.0 °F 11.1 °F 19.9 °F 88% 29.81 in 0.2 mi North 12.7 mph - 0.03 in Fog , Snow Snow
3:19 PM 21.2 °F 9.5 °F 19.4 °F 93% 29.74 in 0.2 mi North 11.5 mph - 0.02 in Fog , Snow Snow
3:52 PM 21.9 °F 9.8 °F 19.0 °F 89% 29.85 in 0.2 mi North 12.7 mph - 0.05 in Fog , Snow Snow
4:24 PM 21.2 °F 8.9 °F 17.6 °F 86% 29.77 in 0.2 mi North 12.7 mph 19.6 mph 0.04 in Fog , Snow Snow
4:52 PM 21.0 °F 12.4 °F 18.0 °F 88% 29.83 in 0.2 mi North 6.9 mph - 0.07 in Fog , Snow Snow
5:09 PM 21.2 °F 10.9 °F 17.6 °F 86% 29.74 in 0.5 mi North 9.2 mph - 0.02 in Fog , Snow Snow
5:16 PM 21.2 °F 12.6 °F 17.6 °F 86% 29.74 in 0.8 mi North 6.9 mph - 0.03 in Snow Light Snow
5:23 PM 19.4 °F 7.9 °F 17.6 °F 93% 29.73 in 1.2 mi North 10.4 mph - 0.03 in Snow Light Snow
5:52 PM 19.9 °F 7.3 °F 17.1 °F 89% 29.86 in 1.2 mi North 12.7 mph - 0.04 in Snow Light Snow
5:59 PM 19.4 °F 7.9 °F 17.6 °F 93% 29.77 in 0.8 mi North 10.4 mph - 0.00 in Snow Light Snow
6:11 PM 19.4 °F 5.5 °F 17.6 °F 93% 29.78 in 0.5 mi NNW 15.0 mph 24.2 mph 0.01 in Fog , Snow Snow
6:25 PM 19.4 °F 3.6 °F 15.8 °F 86% 29.79 in 0.5 mi NNW 19.6 mph 27.6 mph 0.02 in Fog , Snow Snow
6:36 PM 19.4 °F 3.2 °F 15.8 °F 86% 29.79 in 0.5 mi NNW 20.7 mph 26.5 mph 0.02 in Fog , Snow Snow
6:50 PM 17.6 °F 3.2 °F 15.8 °F 93% 29.77 in 0.8 mi NNW 15.0 mph - 0.03 in Snow Light Snow
6:52 PM 18.0 °F 3.6 °F 15.1 °F 88% 29.87 in 0.8 mi North 15.0 mph - 0.03 in Snow Light Snow
7:03 PM 17.6 °F 3.2 °F 14.0 °F 86% 29.76 in 0.8 mi NNW 15.0 mph - 0.01 in Snow Light Snow
7:13 PM 17.6 °F 2.7 °F 14.0 °F 86% 29.77 in 1.0 mi NNW 16.1 mph 23.0 mph 0.01 in Snow Light Snow
7:38 PM 17.6 °F 3.7 °F 12.2 °F 79% 29.77 in 1.0 mi NNW 13.8 mph 23.0 mph 0.02 in Snow Light Snow
7:45 PM 17.6 °F 4.3 °F 12.2 °F 79% 29.78 in 0.8 mi NNW 12.7 mph - 0.02 in Snow Light Snow
7:52 PM 17.1 °F 5.8 °F 14.0 °F 88% 29.88 in 0.8 mi NNW 9.2 mph - 0.03 in Snow Light Snow
8:39 PM 15.8 °F -0.6 °F 12.2 °F 86% 29.79 in 0.5 mi NNW 18.4 mph 24.2 mph 0.03 in Fog , Snow Snow
8:52 PM 15.1 °F 0.5 °F 12.0 °F 88% 29.90 in 0.5 mi NNW 13.8 mph 21.9 mph 0.04 in Fog , Snow Snow
9:17 PM 15.8 °F 1.4 °F 10.4 °F 79% 29.82 in 0.5 mi NNW 13.8 mph - 0.03 in Fog , Snow Snow
9:52 PM 14.0 °F -1.4 °F 10.0 °F 84% 29.95 in 0.2 mi NNW 15.0 mph - 0.08 in Fog , Snow Heavy Snow
10:27 PM 12.2 °F -4.3 °F 8.6 °F 85% 29.83 in 0.5 mi NNW 16.1 mph - 0.03 in Fog , Snow Snow
10:50 PM 12.2 °F -3.7 °F 8.6 °F 85% 29.83 in 0.8 mi NNW 15.0 mph 26.5 mph 0.04 in Snow Light Snow
10:52 PM 12.0 °F -4.0 °F 8.1 °F 84% 29.95 in 0.8 mi NNW 15.0 mph 26.5 mph 0.04 in Snow Light Snow
11:52 PM 10.9 °F -6.5 °F 7.0 °F 84% 29.97 in 1.0 mi NW 17.3 mph - 0.04 in Snow Light Snow